Regional Weather Roundup
Issued by NWS

Home | Current Version | Previous Version | Graphics & Text | Print | Product List | Glossary On
Versions: 1 2 3 4 5 6 7 8 9 10 11 12 13 14 15 16 17 18 19 20 21 22 23 24 25 26 27 28 29 30 31 32 33 34 35 36 37 38 39 40 41 42 43 44 45 46 47 48 49 50
000
ASUS45 KTFX 270204
RWRMT
MONTANA HOURLY WEATHER ROUNDUP
NATIONAL WEATHER SERVICE GREAT FALLS MT
704 PM MST THU FEB 26 2015

NOTE: "FAIR" INDICATES FEW OR NO CLOUDS BELOW 12000 FEET WITH NO
SIGNIFICANT WEATHER AND/OR OBSTRUCTIONS TO VISIBILITY.

* THESE STATIONS ARE NOT UNDER NWS QUALITY CONTROL. THEY DO NOT
   REPORT WEATHER SUCH AS PRECIPITATION OR FOG.

MTZ001>007-043-270300-
WEST OF THE DIVIDE
CITY           SKY/WX    TMP DP  RH WIND       PRES   REMARKS
KALISPELL      CLOUDY    27  19  72 NW3       30.01F
MISSOULA       PTCLDY    34  16  48 E14       30.00F WCI  24
BUTTE          CLEAR     16   9  74 S17       29.97S
MULLAN PASS    CLOUDY    25  18  75 CALM      29.89F
* ANACONDA     PTCLDY    16  12  84 N/A        N/A
* ESSEX        N/A       22  11  62 SE9        N/A   WCI  12
* LINCOLN      N/A       20   6  54 E6G11      N/A   WCI  12
* LOOKOUT PASS N/A       31  22  69 NE1        N/A
* POLSON       N/A       27  17  66 N/A        N/A
* RONAN APT    MOCLDY    30  21  69 N/A        N/A
* SEELEY LAKE  N/A       22  10  60 NE1G6      N/A
* THOMP F APT  MOCLDY    24   7  48 N4G15      N/A
* YAAK HILL    N/A       41  20  43 E2         N/A
$$

MTZ008-052>055-270300-
SOUTHWEST MONTANA
CITY           SKY/WX    TMP DP  RH WIND       PRES   REMARKS
BOZEMAN        CLEAR     14   7  73 SE14      30.07F WCI  -1
DILLON         MOCLDY    16   9  74 NE15      29.97F WCI   1
* W YELLOWSTON CLEAR     19   3  49 NE2        N/A
* THREE FORKS  CLEAR     21  12  68 N/A        N/A
* BOULDER HILL N/A       14   6  70 N/A        N/A
* MONIDA PASS  N/A       18   9  68 VRB11      N/A   WCI   6
* RAYNOLDS PAS N/A        8   8 100 N8         N/A   WCI  -4
* WHITEHALL    N/A       19   9  65 E8G16      N/A   WCI   9
* WISE RIVER   N/A       24  13  63 SE8G13     N/A   WCI  15
$$

MTZ009>010-012-014-046-048-049-054-270300-
EAST SLOPES AND CENTRAL MONTANA
CITY           SKY/WX    TMP DP  RH WIND       PRES   REMARKS
CUT BANK       CLOUDY    10   7  88 SE16      30.10F WCI  -7
GREAT FALLS    CLEAR     10   5  80 E10       30.12F WCI  -4
HELENA         PTCLDY    19  10  68 CALM      30.09F
* DEARBORN     N/A       14   8  77 NE1        N/A
* EAST GLACIER N/A        1  -3  83 NE2        N/A
* MONARCH      N/A       -2  -9  72 E10        N/A   WCI -18
* PENDROY      N/A        9   6  87 S11        N/A   WCI  -5
* ROGERS PASS  N/A        2  -3  79 NW1        N/A
* SWEET GRASS  N/A        8   3  80 S21G26     N/A   WCI -12
$$

MTZ011-013-016-021-035-040-045-047-050-051-270300-
NORTH CENTRAL MONTANA
CITY           SKY/WX    TMP DP  RH WIND       PRES   REMARKS
HAVRE          CLEAR     10   3  73 E10       30.26F WCI  -4
LEWISTOWN      PTCLDY     7  -2  66 E12       30.15F WCI  -9
* N BAR RANCH  MOCLDY     1  -2  87 SE6       30.18S WCI -11
* CHESTER      N/A       12   4  70 SE4G9      N/A
* DENTON       N/A        8  -1  66 SE11       N/A   WCI  -7
* GEYSER       N/A        0  -6  75 S3         N/A
* JUDITH GAP   N/A        8   2  76 SE15       N/A   WCI  -9
* LOMA         N/A       12   5  73 E14        N/A   WCI  -4
$$

MTZ017>020-022>027-061-062-270300-
NORTHEAST MONTANA
CITY           SKY/WX    TMP DP  RH WIND       PRES   REMARKS
GLASGOW        CLEAR      5  -6  60 SE9       30.41F WCI  -9
GLENDIVE       CLEAR      9  -8  45 E3        30.43F
JORDAN         CLEAR      3  -2  79 S3        30.38S
SIDNEY         CLEAR      5  -8  54 CALM      30.51F
WOLF POINT     CLEAR      9  -2  61 CALM      30.47S
* BEAVER HILL  N/A        5  -6  60 E2         N/A
* CIRCLE       N/A        9  -3  58 N/A        N/A
* LINDSAY DVD  N/A        2  -6  69 E4         N/A
* NAVAJO       N/A        1  -6  72 SE5        N/A   WCI  -9
* SACO         N/A        5  -3  69 E9         N/A   WCI  -9
$$

MTZ028>042-056>058-270300-
SOUTHCENTRAL AND SOUTHEAST MONTANA
CITY           SKY/WX    TMP DP  RH WIND       PRES   REMARKS
BAKER          CLEAR      1  -6  72 S6        30.39F WCI -11
BILLINGS       FAIR      10   1  67 SE8       30.25F WCI  -2
LIVINGSTON     CLOUDY    10   1  67 E10       30.13S WCI  -4
MILES CITY     CLEAR      7  -6  55 S5        30.41S WCI  -2
* LAUREL APT   CLEAR      9  -6  50 N/A        N/A
* ROUNDUP APT  CLEAR     10  -4  53 N/A        N/A
* ALZADA       N/A       -4 -10  75 NE1        N/A
* HYSHAM       N/A        4  -6  63 SE4        N/A
* LAME DEER    N/A        0  -4  83 SE7        N/A   WCI -13
* REED POINT   N/A       12   4  70 E6         N/A   WCI   2
* ROSCOE HILL  N/A        3  -3  76 E2         N/A
$$

REGIONAL REPORTS...DAKOTAS
CITY           SKY/WX    TMP DP  RH WIND       PRES   REMARKS
WILLISTON      PTCLDY    -8 -15  71 N/A       30.49F
DICKINSON      CLEAR      1  -8  65 E6        30.41F WCI -11
BEACH          CLEAR      3  -4  72 CALM      30.42S
CROSBY         CLEAR     -9 -13  82 CALM      30.50F
WATFORD CITY   CLEAR      0  -8  68 CALM      30.47S
BISMARCK       CLEAR      3  -6  66 NW9       30.53S WCI -11
GRAND FORKS    PTCLDY    -6 -11  78 W5        30.51F WCI -18
FARGO          PTCLDY     1  -8  65 W10       30.53R WCI -15
BUFFALO SD     CLEAR      5  -6  60 NE6       30.32F WCI  -6
RAPID CITY     PTCLDY    -2  -9  72 NW7       30.39S WCI -15
$$

REGIONAL REPORTS...WYOMING/IDAHO/WASHINGTON
CITY           SKY/WX    TMP DP  RH WIND       PRES   REMARKS
GILLETTE       PTCLDY    -8 -11  86 CALM      30.24S
SHERIDAN       PTCLDY     1  -6  72 S3        30.24F
CODY           CLOUDY     7   5  91 N8        30.11S WCI  -6
YELLOWSTONE LA PTCLDY    10  -2  58 CALM      29.89R
SALMON         CLOUDY    36  18  48 E3        29.92S
MULLAN PASS    CLOUDY    25  18  75 CALM      29.89S
SAND POINT     MOCLDY    36  32  85 CALM      29.99F
SPOKANE        CLOUDY    39  30  70 N6        29.97F WCI  35

$$



USA.gov is the U.S. government's official web portal to all federal, state and local government web resources and services.